Simultaneous Nadir Overpasses (SNOs) Predictions

Prediction of SNOs between GOES-15 and FY3D Satellite Orbit:

Table of predicted SNOs for the next 14.0 days since TLE Epoch: 11/9/2024
Index Date Time (GOES-15) GOES-15 Lat,Lon FY3D Lat,Lon Distance(km) Time Diff (sec)
1 11/09/2024 10:43:00 -0.01, 61.55 -0.38, 59.96 181.12 80
2 11/10/2024 10:26:58 -0.02, 61.56 0.64, 64.50 335.07 80
3 11/11/2024 22:48:52 -0.01, 61.49 0.51, 59.24 257.31 80
4 11/12/2024 22:27:30 0.01, 61.51 -0.52, 63.77 258.05 80
5 11/14/2024 10:49:29 0.02, 61.63 -0.71, 58.50 357.51 80
6 11/15/2024 10:33:28 0.00, 61.65 0.34, 63.03 158.36 80
7 11/16/2024 22:55:20 -0.03, 61.58 0.83, 57.78 433.16 80
8 11/17/2024 22:33:58 -0.01, 61.61 -0.16, 62.33 81.63 80
9 11/20/2024 10:37:15 0.02, 61.77 -0.00, 61.59 20.72 80
10 11/21/2024 10:21:12 0.01, 61.80 1.01, 66.13 494.86 80
11 11/22/2024 22:43:03 -0.03, 61.72 0.17, 60.89 96.07 80
